FW2330 Weather Reports


time (UTC)temp
C
wind
direction
speed
KPH
gust
KPH
rain 1hr
cm
rain 24hr
cm
rain mn
cm
humidity
%
barometer
mb
20260506001509 31 355 0.0 4.8 0.00 0.00 0.00 61 1009.9
20260506000005 30 5 0.0 3.2 0.00 0.00 0.00 62 1009.6
20260505234502 29 26 0.0 1.6 0.00 0.00 0.00 64 1009.7
20260505233111 28 57 0.0 6.4 0.00 0.00 0.00 66 1009.8
20260505231602 28 22 0.0 3.2 0.00 0.00 0.00 67 1009.6
20260505230054 28 23 0.0 4.8 0.00 0.00 0.00 67 1009.4
20260505224552 27 26 0.0 0.0 0.00 0.00 0.00 70 1009.2
20260505223052 26 26 0.0 0.0 0.00 0.00 0.00 75 1009.3
20260505221548 25 26 0.0 0.0 0.00 0.00 0.00 77 1008.9
20260505220044 24 9 0.0 0.0 0.00 0.00 0.00 77 1008.7
20260505214550 24 25 0.0 0.0 0.00 0.00 0.00 77 1008.8
20260505213043 24 25 0.0 0.0 0.00 0.00 0.00 77 1008.6
20260505211542 24 25 0.0 0.0 0.00 0.00 0.00 77 1008.8
20260505210042 24 25 0.0 0.0 0.00 0.00 0.00 77 1008.6
20260505204545 23 25 0.0 0.0 0.00 0.00 0.00 77 1008.6
20260505203039 24 25 0.0 0.0 0.00 0.00 0.00 77 1008.4
20260505201538 24 25 0.0 0.0 0.00 0.00 0.00 77 1008.4
20260505200043 24 25 0.0 0.0 0.00 0.00 0.00 77 1008.3
20260505194538 24 25 0.0 0.0 0.00 0.00 0.00 77 1008.3
20260505193036 24 25 0.0 0.0 0.00 0.00 0.00 77 1008.1
20260505191537 24 25 0.0 0.0 0.00 0.00 0.00 77 1008.2
20260505190038 24 25 0.0 0.0 0.00 0.00 0.00 77 1008.2
20260505184533 24 25 0.0 0.0 0.00 0.00 0.00 76 1008.3
20260505183035 24 25 0.0 0.0 0.00 0.00 0.00 76 1008.3
20260505181530 24 25 0.0 0.0 0.00 0.00 0.00 76 1008.2
20260505180028 24 25 0.0 0.0 0.00 0.00 0.00 76 1008.4
20260505174532 25 25 0.0 0.0 0.00 0.00 0.00 76 1008.6
20260505173025 25 25 0.0 0.0 0.00 0.00 0.00 75 1008.7
20260505171525 25 25 0.0 0.0 0.00 0.00 0.00 75 1008.8
20260505170020 25 25 0.0 0.0 0.00 0.00 0.00 76 1008.9
20260505164519 25 25 0.0 0.0 0.00 0.00 0.00 75 1009.0
20260505163017 25 25 0.0 0.0 0.00 0.00 0.00 75 1009.2
20260505161515 25 25 0.0 0.0 0.00 0.00 0.00 74 1009.3
20260505153012 25 25 0.0 1.6 0.00 0.00 0.00 75 1009.8
20260505151512 25 25 0.0 1.6 0.00 0.00 0.00 76 1009.7
20260505124507 26 25 0.0 0.0 0.00 0.00 0.00 73 1009.5
20260505123006 26 25 0.0 0.0 0.00 0.00 0.00 72 1009.5
20260505121508 27 25 0.0 0.0 0.00 0.00 0.00 71 1009.5
20260505120007 27 25 0.0 0.0 0.00 0.00 0.00 71 1009.2
20260505114505 27 25 0.0 0.0 0.00 0.00 0.00 70 1008.9
20260505113007 27 25 0.0 3.2 0.00 0.00 0.00 67 1008.8
20260505111511 27 25 1.6 3.2 0.00 0.00 0.00 68 1008.8
20260505101503 28 343 0.0 3.2 0.00 0.00 0.00 68 1008.5
20260505100002 28 341 0.0 3.2 0.00 0.00 0.00 68 1008.5
20260505094503 28 5 1.6 4.8 0.00 0.00 0.00 68 1008.4
20260505093001 29 149 0.0 3.2 0.00 0.00 0.00 68 1007.8
20260505091500 30 153 0.0 3.2 0.00 0.00 0.00 66 1007.8
20260505090101 30 159 0.0 3.2 0.00 0.00 0.00 64 1007.6
20260505084600 30 178 0.0 3.2 0.00 0.00 0.00 64 1007.6
20260505083103 30 178 0.0 3.2 0.00 0.00 0.00 63 1007.4
20260505081615 30 178 0.0 3.2 0.00 0.00 0.00 63 1007.1
20260505080112 30 154 0.0 3.2 0.00 0.00 0.00 62 1006.9
20260505074557 30 155 0.0 4.8 0.00 0.00 0.00 62 1006.8
20260505073058 31 138 0.0 6.4 0.00 0.00 0.00 61 1006.7
20260505071614 31 138 0.0 6.4 0.00 0.00 0.00 61 1006.9
20260505070111 31 144 0.0 6.4 0.00 0.00 0.00 59 1007.0
20260505064559 31 137 0.0 4.8 0.00 0.00 0.00 60 1007.1
20260505063056 31 203 0.0 14.5 0.00 0.00 0.00 60 1006.8
20260505061559 32 133 1.6 12.9 0.00 0.00 0.00 60 1007.1
20260505060054 31 209 3.2 14.5 0.00 0.00 0.00 60 1007.1
20260505054556 31 143 4.8 16.1 0.00 0.00 0.00 60 1007.3
20260505053101 32 211 0.0 12.9 0.00 0.00 0.00 59 1007.5
20260505051550 32 97 1.6 14.5 0.00 0.00 0.00 59 1007.7
20260505041519 32 157 4.8 12.9 0.00 0.00 0.00 56 1008.5
20260505040032 33 142 3.2 12.9 0.00 0.00 0.00 55 1008.7
20260505034516 32 133 3.2 9.7 0.00 0.00 0.00 55 1008.8
20260505033015 32 92 1.6 12.9 0.00 0.00 0.00 57 1009.2
20260505031512 32 124 6.4 17.7 0.00 0.00 0.00 56 1009.5
20260505030023 32 138 1.6 12.9 0.00 0.00 0.00 58 1009.6
20260505024512 32 139 1.6 14.5 0.00 0.00 0.00 58 1009.6
20260505023009 32 144 0.0 11.3 0.00 0.00 0.00 58 1009.8
20260505021509 31 174 1.6 11.3 0.00 0.00 0.00 59 1010.0
20260505020008 31 232 0.0 6.4 0.00 0.00 0.00 62 1010.2
20260505014507 31 204 0.0 6.4 0.00 0.00 0.00 63 1010.3
20260505013006 31 219 1.6 11.3 0.00 0.00 0.00 61 1010.4
20260505011509 31 355 0.0 8.0 0.00 0.00 0.00 60 1010.3
20260505010003 31 82 0.0 6.4 0.00 0.00 0.00 61 1010.2
20260505004600 31 88 3.2 9.7 0.00 0.00 0.00 61 1010.4
20260505003104 30 66 0.0 6.4 0.00 0.00 0.00 63 1010.4